| time (UTC) | temp F | wind direction | speed knots | gust knots | rain 1hr in | rain 24hr in | rain mn in | humidity % | barometer mb |
| 20260508141557 | 44 | 310 | 5.2 | 10.4 | 0.01 | 0.78 | 0.13 | 97 | 1001.9 |
| 20260508140115 | 44 | 310 | 6.1 | 10.4 | 0.01 | 0.78 | 0.13 | 96 | 1002.2 |
| 20260508134554 | 46 | 314 | 4.3 | 9.6 | 0.00 | 0.77 | 0.12 | 96 | 1002.3 |
| 20260508133103 | 46 | 320 | 4.3 | 7.8 | 0.00 | 0.77 | 0.12 | 98 | 1002.3 |
| 20260508131556 | 46 | 329 | 3.5 | 7.8 | 0.01 | 0.77 | 0.12 | 97 | 1002.4 |
| 20260508130055 | 45 | 329 | 2.6 | 6.1 | 0.01 | 0.77 | 0.12 | 98 | 1002.2 |
| 20260508124559 | 45 | 341 | 1.7 | 7.0 | 0.01 | 0.77 | 0.12 | 95 | 1002.0 |
| 20260508123055 | 47 | 335 | 3.5 | 7.8 | 0.01 | 0.77 | 0.12 | 97 | 1001.9 |
| 20260508121552 | 48 | 330 | 3.5 | 6.1 | 0.00 | 0.76 | 0.11 | 98 | 1002.1 |
| 20260508120111 | 48 | 17 | 0.9 | 3.5 | 0.01 | 0.76 | 0.11 | 99 | 1002.1 |
| 20260508114602 | 47 | 14 | 0.9 | 2.6 | 0.01 | 0.76 | 0.11 | 99 | 1002.0 |
| 20260508113053 | 46 | 12 | 0.0 | 3.5 | 0.01 | 0.76 | 0.11 | 100 | 1002.1 |
| 20260508111556 | 46 | 15 | 0.9 | 2.6 | 0.01 | 0.76 | 0.11 | 100 | 1002.1 |
| 20260508104556 | 44 | 9 | 0.9 | 2.6 | 0.00 | 0.75 | 0.10 | 100 | 1001.9 |
| 20260508103057 | 42 | 2 | 0.0 | 1.7 | 0.00 | 0.75 | 0.10 | 100 | 1002.2 |
| 20260508101556 | 40 | 2 | 0.0 | 0.9 | 0.01 | 0.75 | 0.10 | 100 | 1001.9 |
| 20260508100128 | 40 | 2 | 0.9 | 1.7 | 0.01 | 0.75 | 0.10 | 99 | 1002.1 |
| 20260508094555 | 40 | 2 | 0.0 | 1.7 | 0.01 | 0.75 | 0.10 | 99 | 1001.9 |
| 20260508093055 | 40 | 0 | 0.0 | 1.7 | 0.01 | 0.75 | 0.10 | 99 | 1001.7 |
| 20260508091610 | 40 | 2 | 0.0 | 0.9 | 0.00 | 0.74 | 0.09 | 99 | 1001.5 |
| 20260508090055 | 40 | 0 | 0.0 | 1.7 | 0.01 | 0.74 | 0.09 | 99 | 1001.5 |
| 20260508084557 | 40 | 0 | 0.0 | 1.7 | 0.01 | 0.74 | 0.09 | 99 | 1001.6 |
| 20260508083056 | 41 | 2 | 0.9 | 2.6 | 0.01 | 0.74 | 0.09 | 99 | 1001.4 |
| 20260508081610 | 41 | 359 | 0.9 | 2.6 | 0.02 | 0.74 | 0.09 | 99 | 1001.5 |
| 20260508080052 | 41 | 357 | 0.9 | 2.6 | 0.01 | 0.73 | 0.08 | 99 | 1001.2 |
| 20260508074554 | 41 | 350 | 0.9 | 1.7 | 0.01 | 0.73 | 0.08 | 99 | 1001.4 |
| 20260508073052 | 41 | 0 | 0.0 | 1.7 | 0.02 | 0.73 | 0.08 | 99 | 1001.3 |
| 20260508071555 | 42 | 350 | 0.9 | 2.6 | 0.01 | 0.72 | 0.07 | 99 | 1001.6 |
| 20260508070051 | 42 | 346 | 0.9 | 2.6 | 0.01 | 0.72 | 0.07 | 99 | 1001.7 |
| 20260508064556 | 42 | 344 | 0.9 | 5.2 | 0.02 | 0.72 | 0.07 | 99 | 1001.7 |
| 20260508063056 | 43 | 329 | 1.7 | 6.1 | 0.01 | 0.71 | 0.06 | 98 | 1001.7 |
| 20260508061557 | 45 | 345 | 1.7 | 5.2 | 0.02 | 0.71 | 0.06 | 98 | 1001.5 |
| 20260508060108 | 46 | 0 | 0.0 | 4.3 | 0.02 | 0.71 | 0.06 | 99 | 1001.7 |
| 20260508054639 | 46 | 335 | 1.7 | 6.1 | 0.02 | 0.70 | 0.05 | 99 | 1001.7 |
| 20260508053054 | 46 | 345 | 0.9 | 5.2 | 0.02 | 0.70 | 0.05 | 99 | 1001.7 |
| 20260508051551 | 46 | 341 | 2.6 | 7.0 | 0.01 | 0.69 | 0.04 | 99 | 1001.8 |
| 20260508050054 | 47 | 321 | 3.5 | 7.0 | 0.02 | 0.69 | 0.04 | 99 | 1001.7 |
| 20260508044556 | 47 | 358 | 0.9 | 3.5 | 0.02 | 0.68 | 0.03 | 100 | 1001.7 |
| 20260508043058 | 46 | 345 | 0.9 | 3.5 | 0.02 | 0.68 | 0.03 | 99 | 1001.8 |
| 20260508041553 | 46 | 3 | 0.0 | 2.6 | 0.02 | 0.68 | 0.03 | 99 | 1001.8 |
| 20260508040056 | 46 | 3 | 0.0 | 1.7 | 0.02 | 0.67 | 0.02 | 99 | 1002.3 |
| 20260508034554 | 47 | 0 | 0.0 | 0.9 | 0.02 | 0.66 | 0.01 | 99 | 1002.0 |
| 20260508033053 | 47 | 0 | 0.0 | 0.9 | 0.02 | 0.66 | 0.01 | 99 | 1002.0 |
| 20260508031556 | 48 | 0 | 0.0 | 0.9 | 0.03 | 0.66 | 0.01 | 99 | 1002.1 |
| 20260508030104 | 48 | 0 | 0.0 | 1.7 | 0.03 | 0.65 | 0.00 | 99 | 1002.1 |
| 20260508024602 | 48 | 0 | 0.0 | 0.0 | 0.03 | 0.64 | 0.64 | 99 | 1002.4 |
| 20260508023052 | 48 | 0 | 0.0 | 0.9 | 0.03 | 0.64 | 0.64 | 99 | 1002.2 |
| 20260508021554 | 48 | 0 | 0.0 | 1.7 | 0.03 | 0.63 | 0.63 | 99 | 1002.2 |
| 20260508020104 | 48 | 3 | 0.9 | 3.5 | 0.03 | 0.62 | 0.62 | 99 | 1002.3 |
| 20260508014553 | 48 | 356 | 1.7 | 6.1 | 0.03 | 0.61 | 0.61 | 99 | 1002.3 |
| 20260508013053 | 48 | 339 | 2.6 | 8.7 | 0.03 | 0.60 | 0.60 | 99 | 1002.5 |
| 20260508011554 | 48 | 8 | 1.7 | 7.8 | 0.04 | 0.60 | 0.60 | 99 | 1002.3 |
| 20260508010053 | 49 | 323 | 3.5 | 10.4 | 0.05 | 0.58 | 0.58 | 98 | 1002.1 |
| 20260508004557 | 49 | 318 | 0.9 | 6.1 | 0.05 | 0.58 | 0.58 | 98 | 1002.1 |
| 20260508003056 | 50 | 333 | 2.6 | 5.2 | 0.05 | 0.57 | 0.57 | 99 | 1002.1 |
| 20260508001553 | 50 | 330 | 2.6 | 4.3 | 0.06 | 0.56 | 0.56 | 98 | 1002.3 |
| 20260508000051 | 50 | 286 | 0.0 | 5.2 | 0.05 | 0.54 | 0.54 | 98 | 1002.2 |
| 20260507234556 | 51 | 0 | 0.9 | 3.5 | 0.05 | 0.52 | 0.52 | 98 | 1002.2 |
| 20260507233052 | 51 | 187 | 0.0 | 2.6 | 0.06 | 0.52 | 0.52 | 98 | 1002.1 |
| 20260507231553 | 52 | 189 | 1.7 | 7.8 | 0.06 | 0.50 | 0.50 | 98 | 1002.1 |
| 20260507230050 | 53 | 237 | 3.5 | 7.0 | 0.07 | 0.49 | 0.49 | 97 | 1002.1 |
| 20260507224553 | 53 | 162 | 2.6 | 7.8 | 0.07 | 0.48 | 0.48 | 98 | 1001.8 |
| 20260507223056 | 54 | 233 | 2.6 | 7.8 | 0.08 | 0.46 | 0.46 | 97 | 1001.9 |
| 20260507221551 | 54 | 154 | 4.3 | 8.7 | 0.08 | 0.44 | 0.44 | 97 | 1001.6 |
| 20260507220055 | 54 | 152 | 5.2 | 8.7 | 0.08 | 0.42 | 0.42 | 98 | 1001.5 |
| 20260507214554 | 54 | 151 | 6.1 | 9.6 | 0.08 | 0.40 | 0.40 | 97 | 1001.3 |
| 20260507213053 | 54 | 148 | 1.7 | 7.0 | 0.09 | 0.38 | 0.38 | 98 | 1001.3 |
| 20260507211557 | 55 | 149 | 4.3 | 7.8 | 0.10 | 0.36 | 0.36 | 98 | 1001.4 |
| 20260507210103 | 55 | 158 | 3.5 | 7.8 | 0.10 | 0.34 | 0.34 | 98 | 1001.2 |
| 20260507204551 | 54 | 150 | 6.1 | 9.6 | 0.10 | 0.32 | 0.32 | 98 | 1001.4 |
| 20260507203101 | 54 | 170 | 4.3 | 9.6 | 0.10 | 0.29 | 0.29 | 98 | 1001.2 |
| 20260507201552 | 54 | 145 | 4.3 | 9.6 | 0.10 | 0.26 | 0.26 | 98 | 1001.4 |
| 20260507200053 | 54 | 140 | 4.3 | 13.0 | 0.10 | 0.24 | 0.24 | 98 | 1000.4 |
| 20260507194554 | 54 | 138 | 6.1 | 13.9 | 0.09 | 0.21 | 0.21 | 98 | 1000.6 |
| 20260507193049 | 54 | 140 | 5.2 | 11.3 | 0.10 | 0.19 | 0.19 | 99 | 1001.4 |
| 20260507191552 | 54 | 156 | 5.2 | 13.0 | 0.09 | 0.16 | 0.16 | 98 | 1001.9 |
| 20260507190052 | 54 | 117 | 7.0 | 13.9 | 0.09 | 0.14 | 0.14 | 98 | 1003.1 |
| 20260507184552 | 54 | 110 | 7.0 | 11.3 | 0.08 | 0.12 | 0.12 | 98 | 1003.4 |
| 20260507183055 | 54 | 131 | 6.1 | 11.3 | 0.07 | 0.09 | 0.09 | 98 | 1003.3 |
| 20260507181555 | 54 | 98 | 6.1 | 13.0 | 0.06 | 0.07 | 0.07 | 98 | 1004.1 |
| 20260507180058 | 55 | 153 | 7.8 | 14.8 | 0.05 | 0.05 | 0.05 | 98 | 1004.0 |
| 20260507174607 | 55 | 119 | 7.8 | 16.5 | 0.04 | 0.04 | 0.04 | 97 | 1004.3 |
| 20260507173054 | 55 | 158 | 9.6 | 16.5 | 0.02 | 0.02 | 0.02 | 97 | 1004.6 |
| 20260507171605 | 55 | 132 | 9.6 | 17.4 | 0.01 | 0.01 | 0.01 | 96 | 1004.5 |
| 20260507170053 | 56 | 121 | 11.3 | 25.2 | 0.00 | 0.00 | 0.00 | 94 | 1003.6 |
| 20260507164552 | 57 | 144 | 14.8 | 24.3 | 0.00 | 0.00 | 0.00 | 91 | 1003.5 |
| 20260507163100 | 58 | 148 | 14.8 | 26.9 | 0.00 | 0.00 | 0.00 | 89 | 1003.5 |
| 20260507161559 | 58 | 170 | 15.6 | 25.2 | 0.00 | 0.00 | 0.00 | 89 | 1003.9 |
| 20260507160055 | 59 | 165 | 14.8 | 29.5 | 0.00 | 0.00 | 0.00 | 88 | 1003.9 |
| 20260507154552 | 60 | 175 | 18.2 | 32.2 | 0.00 | 0.00 | 0.00 | 86 | 1004.3 |
| 20260507153101 | 60 | 158 | 17.4 | 31.3 | 0.00 | 0.00 | 0.00 | 86 | 1004.6 |
| 20260507151553 | 60 | 131 | 20.0 | 37.4 | 0.00 | 0.00 | 0.00 | 86 | 1005.0 |
| 20260507150057 | 60 | 157 | 17.4 | 31.3 | 0.00 | 0.00 | 0.00 | 86 | 1005.2 |
| 20260507144557 | 60 | 175 | 17.4 | 29.5 | 0.00 | 0.00 | 0.00 | 85 | 1005.8 |
| 20260507143054 | 60 | 152 | 11.3 | 28.7 | 0.00 | 0.00 | 0.00 | 84 | 1006.1 |